Location: Nassau
(25.0830°N, 77.3500°W)
Time: 12:15:43
(UTC-04:00)

ISS - All Passes

Search period start: 01 October 2014 00:00
Search period end: 11 October 2014 00:00
Orbit: 413 x 416 km, 51.6° (Epoch: 01 October)

Date Brightness Start Highest point End Pass type
(mag) Time Alt. Az. Time Alt. Az. Time Alt. Az.
01 Oct - 05:38:47 10° N 05:41:13 19° NE 05:43:39 10° E visible
01 Oct - 07:15:12 10° WNW 07:17:49 22° SW 07:20:25 10° S daylight
01 Oct - 20:37:38 10° S 20:40:36 30° SE 20:43:34 10° ENE visible
01 Oct - 22:15:23 10° WNW 22:17:18 15° NW 22:19:14 10° N night (unlit)
02 Oct - 04:51:22 10° NNE 04:51:57 10° NE 04:52:31 10° NE visible
02 Oct - 06:25:36 10° NW 06:28:48 48° SW 06:32:00 10° SSE visible
02 Oct - 19:49:42 10° SSE 19:51:36 14° SE 19:53:30 10° E visible
02 Oct - 21:25:11 10° WSW 21:28:04 27° NW 21:30:57 10° NNE visible
03 Oct - 05:36:25 10° NW 05:39:43 70° NE 05:43:00 10° SE visible
03 Oct - 20:35:37 10° SW 20:38:53 58° NW 20:42:10 10° NNE visible
04 Oct - 04:47:33 10° NNW 04:50:33 31° NE 04:53:31 10° ESE visible
04 Oct - 06:25:31 10° W 06:26:57 12° SW 06:28:24 10° SSW visible
04 Oct - 19:46:29 10° SSW 19:49:45 58° SE 19:53:01 10° NE visible
05 Oct - 03:59:05 10° N 04:01:16 16° NE 04:03:26 10° E night (unlit)
05 Oct - 05:35:06 10° WNW 05:37:55 26° SW 05:40:43 10° S visible
05 Oct - 18:57:51 10° S 19:00:38 25° SE 19:03:26 10° ENE daylight
05 Oct - 20:35:02 10° W 20:37:17 17° NW 20:39:31 10° N visible
06 Oct - 04:45:32 10° NW 04:48:48 61° SW 04:52:03 10° SSE visible
06 Oct - 18:10:14 10° SSE 18:11:34 12° SE 18:12:54 10° E daylight
06 Oct - 19:44:57 10° WSW 19:47:58 32° NW 19:50:59 10° NNE visible
07 Oct - 03:56:21 10° NNW 03:59:36 55° NE 04:02:51 10° SE night (unlit)
07 Oct - 18:55:24 10° SW 18:58:42 73° NW 19:02:01 10° NE daylight
08 Oct - 03:07:28 10° NNW 03:10:18 26° NE 03:13:08 10° ESE night (unlit)
08 Oct - 04:44:48 10° W 04:46:46 15° SW 04:48:45 10° SSW night (unlit)
08 Oct - 18:06:17 10° SSW 18:09:29 46° SE 18:12:40 10° NE daylight
08 Oct - 19:45:26 10° NW 19:46:19 11° NW 19:47:11 10° NNW visible
09 Oct - 02:19:05 10° N 02:20:55 14° NE 02:22:44 10° ENE night (unlit)
09 Oct - 03:54:38 10° WNW 03:57:37 32° SW 04:00:36 10° SSE night (unlit)
09 Oct - 17:17:44 10° S 17:20:17 21° SE 17:22:51 10° ENE daylight
09 Oct - 18:54:21 10° W 18:56:51 20° NW 18:59:22 10° N daylight
10 Oct - 03:05:05 10° NW 03:08:24 77° SW 03:11:41 10° SE night (unlit)
10 Oct - 18:04:20 10° WSW 18:07:28 39° NW 18:10:36 10° NNE daylight
